Location: Unspecified
(0.0000°N, 0.0000°E)
Time: 10:24:50
(UTC+00:00)

Tiangong - Pass Details

Date: 07 February 2026
Orbit: 386 x 391 km, 41.5° (Epoch: 15 February)

Event Time Altitude Azimuth Distance (km) Brightness Sun altitude
Exits shadow 05:01:29 51° 322° (NW) 493 -2.0 -17.5°
Maximum altitude 05:02:11 84° 44° (NE) 394 -2.2 -17.3°
Drops below altitude 10° 05:05:24 10° 132° (SE) 1,420 1.7 -16.6°
Sets 05:07:29 0° 133° (SE) 2,277 2.9 -16.1°
